Regional Weather Roundup
Issued by NWS

Home | Current Version | Previous Version | Text Only | Print | Product List | Glossary Off
Versions: 1 2 3 4 5 6 7 8 9 10 11 12 13 14 15 16 17 18 19 20 21 22 23 24 25 26 27 28 29 30 31 32 33 34 35 36 37 38 39 40 41 42 43 44 45 46 47 48 49 50

000
ASUS44 KMEG 252010
RWRTN
TENNESSEE HOURLY STATE WEATHER ROUNDUP
NATIONAL WEATHER SERVICE MEMPHIS TN
300 PM CDT TUE JUL 25 2017

TNZ002-004-019-021-049-052-054-088>092-252100-
WEST TENNESSEE

CITY           SKY/WX    TMP DP  RH WIND       PRES   REMARKS
MEMPHIS INTL   MOSUNNY   95  76  53 W10       30.07S HX 108
NWS MEMPHIS      N/A     93 N/A N/A MISG        N/A
JACKSON        MOSUNNY   93  75  55 S5        30.07F HX 104
SOMERVILLE       N/A     93  73  52 CALM      30.07S HX 102
COVINGTON      MOSUNNY   93  75  55 VRB5      30.07S HX 104
UNION CITY     MOSUNNY   90  77  66 SW6       30.07R HX 102
BOLIVAR        SUNNY     95  73  49 CALM      30.07S HX 105
PARIS          MOSUNNY   91  75  59 S8        30.07S HX 102
HUNTINGDON     SUNNY     93  75  55 VRB5G12   30.07S HX 104
LEXINGTON      SUNNY     91  73  55 S5        30.07F HX 100
SELMER         SUNNY     93  73  52 S5        30.07F HX 102
SAVANNAH       MOSUNNY   91  73  55 VRB5      30.06F HX 100
$$

TNZ008-025-027-028-033-062-065-066-252100-
NORTH MIDDLE TENNESSEE

CITY           SKY/WX    TMP DP  RH WIND       PRES   REMARKS
NASHVILLE      PTSUNNY   94  68  42 VRB5      30.08F HX  98
PORTLAND       MOSUNNY   91  73  55 NE8       30.09S HX 100
CLARKSVILLE    CLOUDY    87  74  64 E7        30.08S HX  95
SMYRNA         MOSUNNY   94  72  48 E6        30.08F HX 102
COOKEVILLE     SUNNY     90  70  51 VRB3      30.10S HX  95
GALLATIN       MOSUNNY   91  73  55 NE7       30.10F HX 100
CROSSVILLE     SUNNY     86  64  47 NE7       30.17F
$$

TNZ061-075-076-078-094-096-097-252100-
SOUTH MIDDLE TENNESSEE

CITY           SKY/WX    TMP DP  RH WIND       PRES   REMARKS
FAYETTEVILLE   PTSUNNY   90  73  58 W5        30.09F HX  98
TULLAHOMA      PTSUNNY   90  70  51 VRB3      30.12F HX  95
WINCHESTER     MOSUNNY   91  70  49 NW5       30.10S HX  97
MCMINNVILLE    SUNNY     91  73  55 NW5       30.11S HX 100
COLUMBIA       SUNNY     93  72  49 CALM      30.06F HX 100
SHELBYVILLE    MOSUNNY   91  72  52 VRB3      30.09S HX  98
$$

TNZ017-018-042-046-047-252100-
NORTHEAST TENNESSEE

CITY           SKY/WX    TMP DP  RH WIND       PRES   REMARKS
TRI CITIES     MOSUNNY   88  68  51 VRB3      30.13F HX  91
ELIZABETHTON   MOSUNNY   90  66  45 VRB6      30.13S HX  92
$$

TNZ012-013-036-069-073-074-252100-
CENTRAL EAST TENNESSEE

CITY           SKY/WX    TMP DP  RH WIND       PRES   REMARKS
KNOXVILLE      MOSUNNY   93  67  42 W6        30.08F HX  96
OAK RIDGE      PTSUNNY   92  67  43 VRB3      30.10F HX  95
DOWNTOWN KNOXV PTSUNNY   90  75  62 CALM      30.07S HX 100
GATLINBURG     MOSUNNY   95  63  34 NW8       30.08S HX  96
MORRISTOWN     PTSUNNY   88  72  58 N8        30.10S HX  94
JACKSBORO      MOSUNNY   90  66  45 CALM      30.14F HX  92
$$

TNZ083-085-099-252100-
SOUTHEAST TENNESSEE

CITY           SKY/WX    TMP DP  RH WIND       PRES   REMARKS
CHATTANOOGA    MOSUNNY   94  70  45 E8        30.08F HX 100
DAYTON         CLEAR     90  73  58 VRB3      30.07F HX  98
$$

SKY/WX REPORTED AS FAIR MEANS FEW OR NO CLOUDS BELOW
12 THOUSAND FEET.




USA.gov is the U.S. government's official web portal to all federal, state and local government web resources and services.